"Sample Date","Sample Time","Sensor Name","Sample Value","Units","Flow Rate","Sample Interval","Sample Volume","Laser Status","Number Channels","Micron Size 0","Counts/Channel 0","Micron Size 1","Counts/Channel 1","Micron Size 2","Counts/Channel 2","Micron Size 3","Counts/Channel 3","Micron Size 4","Counts/Channel 4","Micron Size 5","Counts/Channel 5","Micron Size 6","Counts/Channel 6","Micron Size 7","Counts/Channel 7","Micron Size 8","Counts/Channel 8","Micron Size 9","Counts/Channel 9","Micron Size 10","Counts/Channel 10","Micron Size 11","Counts/Channel 11","Micron Size 12","Counts/Channel 12","Micron Size 13","Counts/Channel 13","Micron Size 14","Counts/Channel 14","Micron Size 15","Counts/Channel 15","Micron Size 16","Counts/Channel 16","Micron Size 17","Counts/Channel 17","Micron Size 18","Counts/Channel 18","Micron Size 19","Counts/Channel 19","Micron Size 20","Counts/Channel 20","Micron Size 21","Counts/Channel 21","Micron Size 22","Counts/Channel 22","Micron Size 23","Counts/Channel 23","Micron Size 24","Counts/Channel 24","Micron Size 25","Counts/Channel 25","Micron Size 26","Counts/Channel 26","Micron Size 27","Counts/Channel 27","Micron Size 28","Counts/Channel 28","Micron Size 29","Counts/Channel 29","Micron Size 30","Counts/Channel 30","Micron Size 31","Counts/Channel 31"
"07/03/06","07:00:02","AMMA06",77349.000,"cc",28304.555,6.00,2830.456,1,6,0.100,36754.000,0.200,31101.000,0.300,6562.000,0.500,1808.000,1.000,1124.000,5.000,0
"07/03/06","07:00:08","AMMA06",76818.000,"cc",28341.498,6.00,2834.150,1,6,0.100,35963.000,0.200,31392.000,0.300,6604.000,0.500,1756.000,1.000,1103.000,5.000,0
"07/03/06","07:00:14","AMMA06",77260.000,"cc",28314.203,6.00,2831.420,1,6,0.100,36171.000,0.200,31528.000,0.300,6679.000,0.500,1745.000,1.000,1136.000,5.000,1.000
"07/03/06","07:00:20","AMMA06",76927.000,"cc",28329.402,6.00,2832.940,1,6,0.100,36019.000,0.200,31347.000,0.300,6635.000,0.500,1737.000,1.000,1189.000,5.000,0
"07/03/06","07:00:26","AMMA06",77234.000,"cc",28263.971,6.00,2826.397,1,6,0.100,36381.000,0.200,31427.000,0.300,6577.000,0.500,1696.000,1.000,1153.000,5.000,0
"07/03/06","07:00:32","AMMA06",77595.000,"cc",28343.514,6.00,2834.352,1,6,0.100,36550.000,0.200,31478.000,0.300,6585.000,0.500,1809.000,1.000,1173.000,5.000,0
"07/03/06","07:00:38","AMMA06",77666.000,"cc",28354.326,6.00,2835.433,1,6,0.100,36544.000,0.200,31578.000,0.300,6698.000,0.500,1716.000,1.000,1130.000,5.000,0
"07/03/06","07:00:44","AMMA06",77271.000,"cc",28271.807,6.00,2827.181,1,6,0.100,36266.000,0.200,31415.000,0.300,6609.000,0.500,1825.000,1.000,1156.000,5.000,0
"07/03/06","07:00:50","AMMA06",77452.000,"cc",28340.898,6.00,2834.090,1,6,0.100,36621.000,0.200,31348.000,0.300,6608.000,0.500,1784.000,1.000,1089.000,5.000,2.000
"07/03/06","07:00:56","AMMA06",77380.000,"cc",28312.225,6.00,2831.223,1,6,0.100,36741.000,0.200,31159.000,0.300,6568.000,0.500,1786.000,1.000,1126.000,5.000,0
"07/03/06","07:01:02","AMMA06",77529.000,"cc",28394.590,6.00,2839.459,1,6,0.100,36669.000,0.200,31338.000,0.300,6605.000,0.500,1783.000,1.000,1132.000,5.000,2.000
"07/03/06","07:01:08","AMMA06",77265.000,"cc",28298.168,6.00,2829.817,1,6,0.100,36746.000,0.200,31121.000,0.300,6477.000,0.500,1783.000,1.000,1137.000,5.000,1.000
"07/03/06","07:01:14","AMMA06",76975.000,"cc",28310.932,6.00,2831.093,1,6,0.100,36569.000,0.200,31021.000,0.300,6553.000,0.500,1696.000,1.000,1135.000,5.000,1.000
"07/03/06","07:01:20","AMMA06",76980.000,"cc",28242.416,6.00,2824.242,1,6,0.100,36714.000,0.200,30929.000,0.300,6440.000,0.500,1755.000,1.000,1142.000,5.000,0
"07/03/06","07:01:26","AMMA06",77313.000,"cc",28339.752,6.00,2833.975,1,6,0.100,36750.000,0.200,31135.000,0.300,6483.000,0.500,1804.000,1.000,1140.000,5.000,1.000
"07/03/06","07:01:32","AMMA06",76864.000,"cc",28326.943,6.00,2832.695,1,6,0.100,36450.000,0.200,30968.000,0.300,6585.000,0.500,1711.000,1.000,1149.000,5.000,1.000
"07/03/06","07:01:38","AMMA06",77190.000,"cc",28354.027,6.00,2835.403,1,6,0.100,36587.000,0.200,31163.000,0.300,6594.000,0.500,1716.000,1.000,1129.000,5.000,1.000
"07/03/06","07:01:44","AMMA06",76717.000,"cc",28300.424,6.00,2830.043,1,6,0.100,36269.000,0.200,30923.000,0.300,6539.000,0.500,1813.000,1.000,1169.000,5.000,4.000
"07/03/06","07:01:50","AMMA06",76676.000,"cc",28347.197,6.00,2834.720,1,6,0.100,36328.000,0.200,31006.000,0.300,6445.000,0.500,1762.000,1.000,1135.000,5.000,0
"07/03/06","07:01:56","AMMA06",76291.000,"cc",28338.961,6.00,2833.896,1,6,0.100,36055.000,0.200,30747.000,0.300,6510.000,0.500,1822.000,1.000,1156.000,5.000,1.000
"07/03/06","07:02:02","AMMA06",76745.000,"cc",28287.545,6.00,2828.755,1,6,0.100,36396.000,0.200,30974.000,0.300,6399.000,0.500,1796.000,1.000,1178.000,5.000,2.000
"07/03/06","07:02:08","AMMA06",76914.000,"cc",28239.732,6.00,2823.973,1,6,0.100,36351.000,0.200,31065.000,0.300,6625.000,0.500,1814.000,1.000,1058.000,5.000,1.000
"07/03/06","07:02:14","AMMA06",77418.000,"cc",28333.641,6.00,2833.364,1,6,0.100,36828.000,0.200,31076.000,0.300,6551.000,0.500,1798.000,1.000,1164.000,5.000,1.000
"07/03/06","07:02:20","AMMA06",77361.000,"cc",28295.633,6.00,2829.564,1,6,0.100,36942.000,0.200,31103.000,0.300,6319.000,0.500,1828.000,1.000,1169.000,5.000,0
"07/03/06","07:02:26","AMMA06",77212.000,"cc",28310.943,6.00,2831.095,1,6,0.100,36679.000,0.200,31146.000,0.300,6494.000,0.500,1717.000,1.000,1175.000,5.000,1.000
"07/03/06","07:02:32","AMMA06",76938.000,"cc",28312.010,6.00,2831.201,1,6,0.100,36591.000,0.200,31009.000,0.300,6410.000,0.500,1762.000,1.000,1166.000,5.000,0
"07/03/06","07:02:38","AMMA06",77115.000,"cc",28291.611,6.00,2829.161,1,6,0.100,36706.000,0.200,30856.000,0.300,6637.000,0.500,1789.000,1.000,1127.000,5.000,0
"07/03/06","07:02:44","AMMA06",76493.000,"cc",28284.820,6.00,2828.482,1,6,0.100,36406.000,0.200,30793.000,0.300,6440.000,0.500,1782.000,1.000,1072.000,5.000,0
"07/03/06","07:02:50","AMMA06",76776.000,"cc",28382.965,6.00,2838.297,1,6,0.100,36407.000,0.200,31042.000,0.300,6375.000,0.500,1796.000,1.000,1155.000,5.000,1.000
"07/03/06","07:02:56","AMMA06",77379.000,"cc",28328.668,6.00,2832.867,1,6,0.100,36763.000,0.200,31125.000,0.300,6529.000,0.500,1806.000,1.000,1155.000,5.000,1.000
"07/03/06","07:03:02","AMMA06",76589.000,"cc",28306.295,6.00,2830.630,1,6,0.100,36541.000,0.200,30724.000,0.300,6428.000,0.500,1778.000,1.000,1118.000,5.000,0
"07/03/06","07:03:08","AMMA06",76953.000,"cc",28322.842,6.00,2832.284,1,6,0.100,36487.000,0.200,31032.000,0.300,6471.000,0.500,1817.000,1.000,1146.000,5.000,0
"07/03/06","07:03:14","AMMA06",76857.000,"cc",28358.471,6.00,2835.847,1,6,0.100,36520.000,0.200,30814.000,0.300,6505.000,0.500,1845.000,1.000,1173.000,5.000,0
"07/03/06","07:03:20","AMMA06",76832.000,"cc",28326.361,6.00,2832.636,1,6,0.100,36391.000,0.200,31082.000,0.300,6422.000,0.500,1755.000,1.000,1182.000,5.000,0
"07/03/06","07:03:26","AMMA06",76266.000,"cc",28262.225,6.00,2826.223,1,6,0.100,36037.000,0.200,31034.000,0.300,6338.000,0.500,1676.000,1.000,1180.000,5.000,1.000
"07/03/06","07:03:32","AMMA06",76671.000,"cc",28339.268,6.00,2833.927,1,6,0.100,36377.000,0.200,30940.000,0.300,6373.000,0.500,1820.000,1.000,1160.000,5.000,1.000
"07/03/06","07:03:38","AMMA06",76495.000,"cc",28312.398,6.00,2831.240,1,6,0.100,36077.000,0.200,31061.000,0.300,6357.000,0.500,1819.000,1.000,1181.000,5.000,0
"07/03/06","07:03:44","AMMA06",76291.000,"cc",28313.275,6.00,2831.328,1,6,0.100,36231.000,0.200,30844.000,0.300,6366.000,0.500,1708.000,1.000,1142.000,5.000,0
"07/03/06","07:03:50","AMMA06",76291.000,"cc",28323.746,6.00,2832.375,1,6,0.100,36111.000,0.200,30768.000,0.300,6392.000,0.500,1896.000,1.000,1123.000,5.000,1.000
"07/03/06","07:03:56","AMMA06",76480.000,"cc",28330.848,6.00,2833.085,1,6,0.100,36356.000,0.200,30760.000,0.300,6456.000,0.500,1764.000,1.000,1144.000,5.000,0
"07/03/06","07:04:02","AMMA06",77121.000,"cc",28308.070,6.00,2830.807,1,6,0.100,36737.000,0.200,30949.000,0.300,6405.000,0.500,1809.000,1.000,1218.000,5.000,3.000
"07/03/06","07:04:08","AMMA06",76536.000,"cc",28337.309,6.00,2833.731,1,6,0.100,36379.000,0.200,30801.000,0.300,6468.000,0.500,1740.000,1.000,1146.000,5.000,2.000
"07/03/06","07:04:14","AMMA06",76423.000,"cc",28279.820,6.00,2827.982,1,6,0.100,36426.000,0.200,30702.000,0.300,6312.000,0.500,1789.000,1.000,1191.000,5.000,3.000
"07/03/06","07:04:20","AMMA06",76631.000,"cc",28298.191,6.00,2829.819,1,6,0.100,36347.000,0.200,30897.000,0.300,6447.000,0.500,1712.000,1.000,1227.000,5.000,1.000
"07/03/06","07:04:26","AMMA06",76686.000,"cc",28343.926,6.00,2834.393,1,6,0.100,36189.000,0.200,30995.000,0.300,6665.000,0.500,1665.000,1.000,1172.000,5.000,0
"07/03/06","07:04:32","AMMA06",76117.000,"cc",28308.504,6.00,2830.851,1,6,0.100,36235.000,0.200,30404.000,0.300,6456.000,0.500,1838.000,1.000,1181.000,5.000,3.000
"07/03/06","07:04:38","AMMA06",76371.000,"cc",28322.992,6.00,2832.299,1,6,0.100,36252.000,0.200,30593.000,0.300,6596.000,0.500,1770.000,1.000,1158.000,5.000,2.000
"07/03/06","07:04:44","AMMA06",76642.000,"cc",28334.262,6.00,2833.426,1,6,0.100,36253.000,0.200,30850.000,0.300,6563.000,0.500,1810.000,1.000,1166.000,5.000,0
"07/03/06","07:04:50","AMMA06",76800.000,"cc",28276.227,6.00,2827.623,1,6,0.100,36328.000,0.200,30986.000,0.300,6488.000,0.500,1815.000,1.000,1183.000,5.000,0
"07/03/06","07:04:56","AMMA06",76364.000,"cc",28323.711,6.00,2832.371,1,6,0.100,36240.000,0.200,30641.000,0.300,6533.000,0.500,1781.000,1.000,1168.000,5.000,1.000
"07/03/06","07:05:02","AMMA06",76143.000,"cc",28300.566,6.00,2830.057,1,6,0.100,36011.000,0.200,30785.000,0.300,6392.000,0.500,1828.000,1.000,1124.000,5.000,3.000
"07/03/06","07:05:08","AMMA06",76170.000,"cc",28267.266,6.00,2826.727,1,6,0.100,36106.000,0.200,30758.000,0.300,6394.000,0.500,1769.000,1.000,1143.000,5.000,0
"07/03/06","07:05:14","AMMA06",76306.000,"cc",28371.502,6.00,2837.150,1,6,0.100,36326.000,0.200,30659.000,0.300,6385.000,0.500,1789.000,1.000,1146.000,5.000,1.000
"07/03/06","07:05:20","AMMA06",76587.000,"cc",28280.824,6.00,2828.083,1,6,0.100,36386.000,0.200,30920.000,0.300,6348.000,0.500,1793.000,1.000,1140.000,5.000,0
"07/03/06","07:05:26","AMMA06",77078.000,"cc",28361.775,6.00,2836.178,1,6,0.100,36751.000,0.200,30930.000,0.300,6536.000,0.500,1709.000,1.000,1152.000,5.000,0
"07/03/06","07:05:32","AMMA06",77173.000,"cc",28308.816,6.00,2830.882,1,6,0.100,36542.000,0.200,31167.000,0.300,6506.000,0.500,1784.000,1.000,1172.000,5.000,2.000
"07/03/06","07:05:38","AMMA06",77166.000,"cc",28305.918,6.00,2830.592,1,6,0.100,36756.000,0.200,31163.000,0.300,6372.000,0.500,1727.000,1.000,1147.000,5.000,1.000
"07/03/06","07:05:44","AMMA06",77365.000,"cc",28290.973,6.00,2829.097,1,6,0.100,36801.000,0.200,30940.000,0.300,6688.000,0.500,1806.000,1.000,1130.000,5.000,0
"07/03/06","07:05:50","AMMA06",76635.000,"cc",28312.992,6.00,2831.299,1,6,0.100,36456.000,0.200,30691.000,0.300,6452.000,0.500,1815.000,1.000,1220.000,5.000,1.000
"07/03/06","07:05:56","AMMA06",76961.000,"cc",28323.682,6.00,2832.368,1,6,0.100,36501.000,0.200,31047.000,0.300,6441.000,0.500,1812.000,1.000,1158.000,5.000,2.000
"07/03/06","07:06:02","AMMA06",76996.000,"cc",28326.900,6.00,2832.690,1,6,0.100,36529.000,0.200,30906.000,0.300,6520.000,0.500,1850.000,1.000,1191.000,5.000,0
"07/03/06","07:06:08","AMMA06",76879.000,"cc",28269.121,6.00,2826.912,1,6,0.100,36225.000,0.200,31015.000,0.300,6575.000,0.500,1876.000,1.000,1187.000,5.000,1.000
"07/03/06","07:06:14","AMMA06",76967.000,"cc",28348.563,6.00,2834.856,1,6,0.100,36610.000,0.200,30923.000,0.300,6496.000,0.500,1797.000,1.000,1141.000,5.000,0
"07/03/06","07:06:20","AMMA06",76549.000,"cc",28278.320,6.00,2827.832,1,6,0.100,36222.000,0.200,30900.000,0.300,6486.000,0.500,1840.000,1.000,1100.000,5.000,1.000
"07/03/06","07:06:26","AMMA06",75910.000,"cc",28342.281,6.00,2834.228,1,6,0.100,36094.000,0.200,30434.000,0.300,6317.000,0.500,1911.000,1.000,1153.000,5.000,1.000
"07/03/06","07:06:32","AMMA06",76364.000,"cc",28376.541,6.00,2837.654,1,6,0.100,35934.000,0.200,31011.000,0.300,6429.000,0.500,1832.000,1.000,1156.000,5.000,2.000
"07/03/06","07:06:38","AMMA06",76425.000,"cc",28292.428,6.00,2829.243,1,6,0.100,36147.000,0.200,30790.000,0.300,6399.000,0.500,1856.000,1.000,1233.000,5.000,0
"07/03/06","07:06:44","AMMA06",76364.000,"cc",28294.721,6.00,2829.472,1,6,0.100,36300.000,0.200,30690.000,0.300,6413.000,0.500,1785.000,1.000,1176.000,5.000,0
"07/03/06","07:06:50","AMMA06",76993.000,"cc",28326.371,6.00,2832.637,1,6,0.100,36751.000,0.200,30781.000,0.300,6557.000,0.500,1694.000,1.000,1209.000,5.000,1.000
"07/03/06","07:06:56","AMMA06",76750.000,"cc",28283.057,6.00,2828.306,1,6,0.100,36380.000,0.200,30942.000,0.300,6373.000,0.500,1854.000,1.000,1200.000,5.000,1.000
"07/03/06","07:07:02","AMMA06",76639.000,"cc",28299.623,6.00,2829.962,1,6,0.100,36201.000,0.200,30739.000,0.300,6583.000,0.500,1914.000,1.000,1200.000,5.000,2.000
"07/03/06","07:07:08","AMMA06",76291.000,"cc",28327.592,6.00,2832.759,1,6,0.100,35949.000,0.200,30940.000,0.300,6440.000,0.500,1780.000,1.000,1181.000,5.000,1.000
"07/03/06","07:07:14","AMMA06",76185.000,"cc",28276.270,6.00,2827.627,1,6,0.100,36108.000,0.200,30860.000,0.300,6202.000,0.500,1821.000,1.000,1193.000,5.000,1.000
"07/03/06","07:07:20","AMMA06",75893.000,"cc",28340.193,6.00,2834.020,1,6,0.100,35696.000,0.200,30879.000,0.300,6321.000,0.500,1845.000,1.000,1152.000,5.000,0
"07/03/06","07:07:26","AMMA06",76315.000,"cc",28315.828,6.00,2831.583,1,6,0.100,36020.000,0.200,30851.000,0.300,6433.000,0.500,1818.000,1.000,1191.000,5.000,2.000
"07/03/06","07:07:32","AMMA06",75881.000,"cc",28342.352,6.00,2834.235,1,6,0.100,35447.000,0.200,31015.000,0.300,6405.000,0.500,1878.000,1.000,1135.000,5.000,1.000
"07/03/06","07:07:38","AMMA06",76121.000,"cc",28356.826,6.00,2835.683,1,6,0.100,35840.000,0.200,30737.000,0.300,6409.000,0.500,1893.000,1.000,1242.000,5.000,0
"07/03/06","07:07:44","AMMA06",75799.000,"cc",28357.643,6.00,2835.764,1,6,0.100,35538.000,0.200,30891.000,0.300,6398.000,0.500,1788.000,1.000,1184.000,5.000,0
"07/03/06","07:07:50","AMMA06",75395.000,"cc",28274.635,6.00,2827.464,1,6,0.100,35350.000,0.200,30588.000,0.300,6453.000,0.500,1805.000,1.000,1199.000,5.000,0
"07/03/06","07:07:56","AMMA06",76228.000,"cc",28268.076,6.00,2826.808,1,6,0.100,35960.000,0.200,30861.000,0.300,6500.000,0.500,1752.000,1.000,1155.000,5.000,0
"07/03/06","07:08:02","AMMA06",76529.000,"cc",28306.588,6.00,2830.659,1,6,0.100,35995.000,0.200,31184.000,0.300,6519.000,0.500,1709.000,1.000,1121.000,5.000,1.000
"07/03/06","07:08:08","AMMA06",77221.000,"cc",28281.002,6.00,2828.100,1,6,0.100,36711.000,0.200,30932.000,0.300,6610.000,0.500,1776.000,1.000,1192.000,5.000,0
"07/03/06","07:08:14","AMMA06",76853.000,"cc",28351.297,6.00,2835.130,1,6,0.100,36319.000,0.200,31098.000,0.300,6531.000,0.500,1813.000,1.000,1089.000,5.000,3.000
"07/03/06","07:08:20","AMMA06",77575.000,"cc",28376.254,6.00,2837.626,1,6,0.100,36879.000,0.200,31224.000,0.300,6433.000,0.500,1842.000,1.000,1196.000,5.000,1.000
"07/03/06","07:08:26","AMMA06",78090.000,"cc",28340.650,6.00,2834.065,1,6,0.100,37122.000,0.200,31275.000,0.300,6681.000,0.500,1816.000,1.000,1196.000,5.000,0
"07/03/06","07:08:32","AMMA06",78194.000,"cc",28263.982,6.00,2826.398,1,6,0.100,37103.000,0.200,31453.000,0.300,6606.000,0.500,1838.000,1.000,1194.000,5.000,0
"07/03/06","07:08:38","AMMA06",77876.000,"cc",28328.676,6.00,2832.868,1,6,0.100,36759.000,0.200,31344.000,0.300,6796.000,0.500,1798.000,1.000,1176.000,5.000,3.000
"07/03/06","07:08:44","AMMA06",77682.000,"cc",28306.029,6.00,2830.603,1,6,0.100,36829.000,0.200,31278.000,0.300,6623.000,0.500,1812.000,1.000,1140.000,5.000,0
"07/03/06","07:08:50","AMMA06",77329.000,"cc",28374.330,6.00,2837.433,1,6,0.100,36616.000,0.200,31226.000,0.300,6584.000,0.500,1772.000,1.000,1131.000,5.000,0
"07/03/06","07:08:56","AMMA06",77244.000,"cc",28360.113,6.00,2836.012,1,6,0.100,36539.000,0.200,31117.000,0.300,6611.000,0.500,1776.000,1.000,1199.000,5.000,2.000
"07/03/06","07:09:02","AMMA06",76645.000,"cc",28285.270,6.00,2828.527,1,6,0.100,36303.000,0.200,30747.000,0.300,6631.000,0.500,1770.000,1.000,1190.000,5.000,4.000
"07/03/06","07:09:08","AMMA06",77419.000,"cc",28253.084,6.00,2825.309,1,6,0.100,36582.000,0.200,31363.000,0.300,6471.000,0.500,1834.000,1.000,1168.000,5.000,1.000
"07/03/06","07:09:14","AMMA06",77323.000,"cc",28304.635,6.00,2830.464,1,6,0.100,36781.000,0.200,30954.000,0.300,6671.000,0.500,1748.000,1.000,1163.000,5.000,6.000
"07/03/06","07:09:20","AMMA06",77194.000,"cc",28293.463,6.00,2829.346,1,6,0.100,36616.000,0.200,31072.000,0.300,6553.000,0.500,1767.000,1.000,1185.000,5.000,1.000
"07/03/06","07:09:26","AMMA06",77864.000,"cc",28327.865,6.00,2832.787,1,6,0.100,37034.000,0.200,31277.000,0.300,6681.000,0.500,1732.000,1.000,1140.000,5.000,0
"07/03/06","07:09:32","AMMA06",77958.000,"cc",28412.422,6.00,2841.242,1,6,0.100,37357.000,0.200,31224.000,0.300,6467.000,0.500,1776.000,1.000,1133.000,5.000,1.000
"07/03/06","07:09:38","AMMA06",77546.000,"cc",28318.443,6.00,2831.845,1,6,0.100,36914.000,0.200,30979.000,0.300,6591.000,0.500,1822.000,1.000,1238.000,5.000,2.000
"07/03/06","07:09:44","AMMA06",76952.000,"cc",28343.822,6.00,2834.382,1,6,0.100,36758.000,0.200,30733.000,0.300,6471.000,0.500,1816.000,1.000,1173.000,5.000,1.000
"07/03/06","07:09:50","AMMA06",77049.000,"cc",28328.457,6.00,2832.846,1,6,0.100,36965.000,0.200,30645.000,0.300,6480.000,0.500,1807.000,1.000,1152.000,5.000,0
"07/03/06","07:09:56","AMMA06",77091.000,"cc",28267.504,6.00,2826.751,1,6,0.100,36612.000,0.200,31004.000,0.300,6461.000,0.500,1845.000,1.000,1168.000,5.000,1.000
"07/03/06","07:10:02","AMMA06",77390.000,"cc",28305.973,6.00,2830.597,1,6,0.100,36839.000,0.200,31104.000,0.300,6444.000,0.500,1849.000,1.000,1153.000,5.000,1.000
"07/03/06","07:10:08","AMMA06",76672.000,"cc",28372.240,6.00,2837.224,1,6,0.100,36595.000,0.200,30785.000,0.300,6306.000,0.500,1816.000,1.000,1169.000,5.000,1.000
"07/03/06","07:10:14","AMMA06",76803.000,"cc",28297.621,6.00,2829.762,1,6,0.100,36799.000,0.200,30727.000,0.300,6274.000,0.500,1774.000,1.000,1227.000,5.000,2.000
"07/03/06","07:10:20","AMMA06",76738.000,"cc",28328.330,6.00,2832.833,1,6,0.100,36713.000,0.200,30720.000,0.300,6342.000,0.500,1823.000,1.000,1138.000,5.000,2.000
"07/03/06","07:10:26","AMMA06",76389.000,"cc",28294.184,6.00,2829.419,1,6,0.100,36459.000,0.200,30609.000,0.300,6328.000,0.500,1833.000,1.000,1159.000,5.000,1.000
"07/03/06","07:10:32","AMMA06",76635.000,"cc",28302.117,6.00,2830.212,1,6,0.100,36577.000,0.200,30663.000,0.300,6372.000,0.500,1831.000,1.000,1192.000,5.000,0
"07/03/06","07:10:38","AMMA06",77041.000,"cc",28317.289,6.00,2831.729,1,6,0.100,36871.000,0.200,30934.000,0.300,6289.000,0.500,1801.000,1.000,1146.000,5.000,0
"07/03/06","07:10:44","AMMA06",76782.000,"cc",28321.094,6.00,2832.110,1,6,0.100,37019.000,0.200,30425.000,0.300,6321.000,0.500,1827.000,1.000,1188.000,5.000,2.000
"07/03/06","07:10:50","AMMA06",77161.000,"cc",28329.111,6.00,2832.911,1,6,0.100,37302.000,0.200,30514.000,0.300,6368.000,0.500,1818.000,1.000,1158.000,5.000,1.000
"07/03/06","07:10:56","AMMA06",76699.000,"cc",28343.541,6.00,2834.354,1,6,0.100,36327.000,0.200,30965.000,0.300,6447.000,0.500,1812.000,1.000,1146.000,5.000,2.000
"07/03/06","07:11:02","AMMA06",76831.000,"cc",28317.324,6.00,2831.733,1,6,0.100,36525.000,0.200,30750.000,0.300,6421.000,0.500,1883.000,1.000,1251.000,5.000,1.000
"07/03/06","07:11:08","AMMA06",76819.000,"cc",28271.561,6.00,2827.156,1,6,0.100,36303.000,0.200,30990.000,0.300,6447.000,0.500,1858.000,1.000,1221.000,5.000,0
"07/03/06","07:11:14","AMMA06",76401.000,"cc",28312.732,6.00,2831.273,1,6,0.100,36196.000,0.200,30858.000,0.300,6325.000,0.500,1877.000,1.000,1141.000,5.000,4.000
"07/03/06","07:11:20","AMMA06",75828.000,"cc",28372.527,6.00,2837.253,1,6,0.100,35866.000,0.200,30731.000,0.300,6252.000,0.500,1822.000,1.000,1156.000,5.000,1.000
"07/03/06","07:11:26","AMMA06",76145.000,"cc",28273.033,6.00,2827.304,1,6,0.100,36058.000,0.200,30659.000,0.300,6400.000,0.500,1882.000,1.000,1143.000,5.000,3.000
"07/03/06","07:11:32","AMMA06",75752.000,"cc",28322.549,6.00,2832.255,1,6,0.100,35959.000,0.200,30313.000,0.300,6433.000,0.500,1801.000,1.000,1245.000,5.000,1.000
"07/03/06","07:11:38","AMMA06",76178.000,"cc",28301.481,6.00,2830.148,1,6,0.100,36452.000,0.200,30493.000,0.300,6249.000,0.500,1819.000,1.000,1164.000,5.000,1.000
"07/03/06","07:11:44","AMMA06",76308.000,"cc",28294.422,6.00,2829.442,1,6,0.100,35981.000,0.200,30953.000,0.300,6325.000,0.500,1873.000,1.000,1176.000,5.000,0
"07/03/06","07:11:50","AMMA06",76011.000,"cc",28332.514,6.00,2833.252,1,6,0.100,35972.000,0.200,30672.000,0.300,6386.000,0.500,1788.000,1.000,1192.000,5.000,1.000
"07/03/06","07:11:56","AMMA06",75912.000,"cc",28313.016,6.00,2831.302,1,6,0.100,36128.000,0.200,30541.000,0.300,6298.000,0.500,1769.000,1.000,1175.000,5.000,1.000
"07/03/06","07:12:02","AMMA06",75673.000,"cc",28362.670,6.00,2836.267,1,6,0.100,35629.000,0.200,30732.000,0.300,6315.000,0.500,1867.000,1.000,1130.000,5.000,0
"07/03/06","07:12:08","AMMA06",75677.000,"cc",28303.467,6.00,2830.347,1,6,0.100,35728.000,0.200,30758.000,0.300,6247.000,0.500,1820.000,1.000,1122.000,5.000,2.000
"07/03/06","07:12:14","AMMA06",76022.000,"cc",28292.031,6.00,2829.203,1,6,0.100,36057.000,0.200,30639.000,0.300,6343.000,0.500,1803.000,1.000,1180.000,5.000,0
"07/03/06","07:12:20","AMMA06",75725.000,"cc",28348.465,6.00,2834.847,1,6,0.100,35773.000,0.200,30686.000,0.300,6318.000,0.500,1839.000,1.000,1109.000,5.000,0
"07/03/06","07:12:26","AMMA06",75654.000,"cc",28246.373,6.00,2824.638,1,6,0.100,35810.000,0.200,30436.000,0.300,6451.000,0.500,1785.000,1.000,1171.000,5.000,1.000
"07/03/06","07:12:32","AMMA06",75749.000,"cc",28294.217,6.00,2829.422,1,6,0.100,35635.000,0.200,30919.000,0.300,6171.000,0.500,1874.000,1.000,1150.000,5.000,0
"07/03/06","07:12:38","AMMA06",75863.000,"cc",28346.861,6.00,2834.686,1,6,0.100,35935.000,0.200,30609.000,0.300,6345.000,0.500,1798.000,1.000,1174.000,5.000,2.000
"07/03/06","07:12:44","AMMA06",75837.000,"cc",28354.092,6.00,2835.409,1,6,0.100,35865.000,0.200,30530.000,0.300,6434.000,0.500,1814.000,1.000,1194.000,5.000,0
"07/03/06","07:12:50","AMMA06",75832.000,"cc",28278.272,6.00,2827.827,1,6,0.100,36082.000,0.200,30355.000,0.300,6380.000,0.500,1839.000,1.000,1176.000,5.000,0
"07/03/06","07:12:56","AMMA06",75917.000,"cc",28293.055,6.00,2829.306,1,6,0.100,35713.000,0.200,30776.000,0.300,6484.000,0.500,1777.000,1.000,1166.000,5.000,1.000
"07/03/06","07:13:02","AMMA06",75843.000,"cc",28314.207,6.00,2831.421,1,6,0.100,35874.000,0.200,30637.000,0.300,6360.000,0.500,1832.000,1.000,1139.000,5.000,1.000
"07/03/06","07:13:08","AMMA06",76051.000,"cc",28338.617,6.00,2833.862,1,6,0.100,35817.000,0.200,30836.000,0.300,6368.000,0.500,1838.000,1.000,1189.000,5.000,3.000
"07/03/06","07:13:14","AMMA06",75447.000,"cc",28334.512,6.00,2833.451,1,6,0.100,35711.000,0.200,30371.000,0.300,6351.000,0.500,1826.000,1.000,1187.000,5.000,1.000
"07/03/06","07:13:20","AMMA06",75369.000,"cc",28339.336,6.00,2833.934,1,6,0.100,35423.000,0.200,30481.000,0.300,6383.000,0.500,1874.000,1.000,1205.000,5.000,3.000
"07/03/06","07:13:26","AMMA06",75987.000,"cc",28312.690,6.00,2831.269,1,6,0.100,35797.000,0.200,30695.000,0.300,6423.000,0.500,1878.000,1.000,1194.000,5.000,0
"07/03/06","07:13:32","AMMA06",75151.000,"cc",28314.889,6.00,2831.489,1,6,0.100,35311.000,0.200,30475.000,0.300,6345.000,0.500,1853.000,1.000,1166.000,5.000,1.000
"07/03/06","07:13:38","AMMA06",75185.000,"cc",28329.754,6.00,2832.976,1,6,0.100,35167.000,0.200,30692.000,0.300,6337.000,0.500,1758.000,1.000,1229.000,5.000,2.000
"07/03/06","07:13:44","AMMA06",75040.000,"cc",28333.990,6.00,2833.399,1,6,0.100,35175.000,0.200,30500.000,0.300,6405.000,0.500,1828.000,1.000,1132.000,5.000,0
"07/03/06","07:13:50","AMMA06",75520.000,"cc",28346.656,6.00,2834.666,1,6,0.100,35621.000,0.200,30548.000,0.300,6473.000,0.500,1750.000,1.000,1126.000,5.000,2.000